[[{"header":{"parameterUnit":"m.s-1","parameterCategory":1,"la1":30.2991,"la2":30.254,"lo1":-89.0895,"lo2":-89.0444,"dy":0.0017,"dx":0.0017,"nx":28,"ny":28,"refTime":"2024-04-05T21:00:00:Z","depth":0,"parameterNumber":2,"parameterNumberName":"U-component_of_WINDS"},"data":[0,0,0,0,0,0,0,0,0,0,0,0,0,0,0,0,0,0,0,0,0,0,0,0,0,0,0,0,0,0,0,0,0,0,0,0,0,0,0,0,0,0,0,0,0,0,0,0,0,0,0,0,0,0,0,0,0,0,-2.5891,-2.589,0,-2.5807,-2.5806,-2.5805,-2.5695,-2.5693,-2.5692,-2.569,-2.5603,-2.5602,-2.5601,0,0,0,0,0,0,0,0,0,0,0,0,0,-2.5955,-2.5954,-2.5891,-2.589,-2.5889,-2.5808,-2.5806,-2.5805,-2.5695,-2.5693,-2.5691,-2.5689,-2.5603,-2.5602,-2.5601,0,0,0,0,0,0,0,0,0,0,0,0,0,-2.5905,-2.5954,-2.5891,-2.5824,-2.5817,-2.5808,-2.5806,-2.5805,-2.5696,-2.5693,-2.569,-2.5688,-2.5603,-2.5602,-2.5601,-2.565,0,0,-2.5598,-2.5598,0,0,0,0,0,0,0,0,-2.5908,-2.5903,-2.5835,-2.5829,-2.5821,-2.5759,-2.5797,-2.5753,-2.5697,-2.5742,-2.569,-2.5687,-2.5657,-2.5651,-2.5641,-2.5646,-2.5642,-2.5598,-2.5598,-2.5597,-2.5597,0,0,0,0,0,0,0,-2.5912,-2.5906,-2.5858,-2.5834,-2.5826,-2.5798,-2.5788,-2.5788,-2.5715,-2.5738,-2.573,-2.5721,-2.5652,-2.5643,-2.5638,-2.564,-2.5598,-2.5597,-2.5597,-2.5596,-2.5682,-2.5685,0,0,0,0,0,0,-2.5925,-2.5909,-2.586,-2.5855,-2.5859,-2.58,-2.5788,-2.5782,-2.5715,-2.5703,-2.5724,-2.5717,-2.5646,-2.564,-2.5635,-2.5687,-2.5597,-2.5596,-2.5596,-2.5679,-2.5683,-2.5686,0,0,0,0,0,0,-2.5927,-2.5922,-2.5864,-2.588,-2.5871,-2.5801,-2.5795,-2.5781,-2.5771,-2.5705,-2.5691,-2.5727,-2.5643,-2.5636,-2.5647,-2.5683,-2.5596,-2.5595,-2.5676,-2.568,-2.5684,-2.5793,0,0,0,0,0,0,-2.5929,-2.5923,-2.594,-2.5881,-2.587,-2.5877,-2.5797,-2.5782,-2.577,-2.576,-2.5704,-2.5692,-2.564,-2.5649,-2.5646,-2.568,-2.5594,-2.5672,-2.5678,-2.5683,-2.5786,-2.58,-2.5813,0,0,0,0,0,-2.5932,-2.5974,-2.5942,-2.5936,-2.589,-2.588,-2.5873,-2.5813,-2.5774,-2.5791,-2.5748,-2.5694,-2.5681,-2.5651,-2.5647,-2.5681,-2.567,-2.5676,-2.5682,-2.578,-2.5798,-2.5813,0,0,0,0,0,0,-2.6037,-2.5964,-2.5928,-2.5952,-2.5923,-2.5861,-2.588,-2.5834,-2.5815,-2.5806,-2.5732,-2.5721,-2.5741,-2.5712,-2.5681,-2.5725,-2.5667,-2.5673,-2.5743,-2.5759,-2.5772,-2.5777,-2.5593,0,0,0,0,0,-2.6064,-2.6061,-2.5998,-2.6025,-2.6013,-2.595,-2.5943,-2.59,-2.5866,-2.5853,-2.5811,-2.578,-2.5769,-2.5763,-2.5749,-2.5783,-2.5769,-2.5804,-2.5818,-2.5829,-2.5834,-2.5851,-2.5866,-2.5707,-2.5707,-2.5706,0,0,-2.6117,-2.6077,-2.608,-2.6045,-2.6017,-2.6017,-2.594,-2.5941,-2.594,-2.5853,-2.586,-2.583,-2.579,-2.5813,-2.5821,-2.579,-2.5876,-2.5837,-2.5847,-2.5845,-2.5859,-2.5874,-2.5887,-2.5711,-2.571,-2.5709,0,0,-2.6214,-2.6184,-2.6203,-2.6178,-2.6138,-2.6096,-2.6102,-2.6047,-2.6024,-2.6031,-2.5966,-2.5964,-2.5946,-2.5921,-2.5906,-2.5998,-2.5947,-2.5996,-2.6065,-2.6082,-2.6095,-2.6106,-2.6138,-2.615,-2.6002,-2.6002,-2.6002,0,-2.6285,-2.6281,-2.6219,-2.6226,-2.6213,-2.6136,-2.6156,-2.6134,-2.6091,-2.6084,-2.6051,-2.6028,-2.5996,-2.6013,-2.6036,-2.6027,-2.603,-2.6,-2.6098,-2.6108,-2.6117,-2.6147,-2.616,-2.6008,-2.6007,-2.6007,-2.6006,0,-2.637,-2.6369,-2.639,-2.6352,-2.6342,-2.6355,-2.6295,-2.6293,-2.6252,-2.6215,-2.6224,-2.6184,-2.6161,-2.6162,-2.6122,-2.6174,-2.6156,-2.6112,-2.6051,-2.614,-2.6166,-2.6177,-2.6017,-2.6014,-2.6013,-2.6011,0,0,-2.6526,-2.6457,-2.6465,-2.6448,-2.64,-2.6398,-2.6409,-2.6388,-2.6387,-2.6361,-2.6368,-2.6357,-2.6316,-2.63,-2.6256,-2.6272,-2.6347,-2.6226,-2.6224,-2.6248,-2.6402,-2.6434,-2.6448,-2.6315,-2.6317,-2.6319,-2.6405,0,-2.6612,-2.6626,-2.6573,-2.66,-2.6599,-2.6528,-2.6538,-2.651,-2.6476,-2.647,-2.6433,-2.6426,-2.6373,-2.6363,-2.6376,-2.6336,-2.6377,-2.6329,-2.632,-2.632,-2.6329,-2.6462,-2.6495,-2.6578,-2.6415,-2.6417,-2.6418,0,-2.6713,-2.6695,-2.6723,-2.6675,-2.6673,-2.6682,-2.6659,-2.6655,-2.6623,-2.6597,-2.6581,-2.6532,-2.654,-2.6485,-2.6494,-2.6463,-2.6457,-2.6437,-2.6439,-2.6434,-2.6373,-2.6459,-2.6603,-2.6615,-2.6434,-2.6433,-2.6432,0,-2.6823,-2.6805,-2.682,-2.6807,-2.6753,-2.6761,-2.6739,-2.6704,-2.6696,-2.6676,-2.667,-2.6652,-2.6642,-2.663,-2.6577,-2.6542,-2.6593,-2.6534,-2.6572,-2.6573,-2.6583,-2.6582,-2.6726,-2.6583,-2.6583,-2.6583,-2.6582,0,-2.6923,-2.6943,-2.6869,-2.6877,-2.6898,-2.6838,-2.686,-2.683,-2.6801,-2.6803,-2.6742,-2.6745,-2.6677,-2.6673,-2.6633,-2.6647,-2.6643,-2.6623,-2.6611,-2.6627,-2.6629,-2.6619,-2.6611,-2.6586,-2.6585,-2.6585,-2.6584,0,-2.7047,-2.6999,-2.701,-2.6959,-2.6947,-2.6964,-2.692,-2.6926,-2.6891,-2.6894,-2.6892,-2.6835,-2.6828,-2.6776,-2.6756,-2.6729,-2.6758,-2.6736,-2.6769,-2.6761,-2.6801,-2.6798,-2.6942,-2.6958,-2.6807,-2.6809,-2.681,0,-2.7113,-2.7127,-2.7078,-2.7075,-2.7056,-2.7053,-2.7045,-2.6987,-2.6981,-2.6948,-2.6958,-2.6946,-2.6933,-2.6925,-2.6882,-2.6867,-2.6844,-2.6896,-2.6841,-2.6857,-2.6843,-2.6842,-2.6843,-2.6906,-2.6908,-2.691,-2.6911,0,-2.7234,-2.7211,-2.7201,-2.7185,-2.7177,-2.7161,-2.7141,-2.7142,-2.7079,-2.7076,-2.7068,-2.7058,-2.704,-2.7029,-2.7007,-2.6984,-2.6937,-2.693,-2.6937,-2.6952,-2.697,-2.6959,-2.6798,-2.6925,-2.6924,-2.6923,-2.6922,-2.6922,-2.733,-2.7339,-2.7307,-2.7299,-2.7279,-2.7263,-2.7266,-2.7233,-2.7225,-2.7206,-2.7173,-2.7171,-2.714,-2.7107,-2.7088,-2.7086,-2.7058,-2.707,-2.7072,-2.7075,-2.7083,-2.6973,-2.7082,-2.7081,-2.7081,-2.708,-2.708,0,-2.7447,-2.7424,-2.7418,-2.7393,-2.7387,-2.7346,-2.7323,-2.7321,-2.7319,-2.7296,-2.7285,-2.7277,-2.7267,-2.7226,-2.7211,-2.7217,-2.7195,-2.7215,-2.7213,-2.7208,-2.7109,-2.7103,-2.7233,-2.7233,-2.7233,-2.7233,-2.7233,-2.7233,-2.7507,-2.7521,-2.7494,-2.7498,-2.7474,-2.7472,-2.7462,-2.7447,-2.7428,-2.7422,-2.7414,-2.7388,-2.7357,-2.734,-2.733,-2.7318,-2.7314,-2.7341,-2.7322,-2.723,-2.7215,-2.7201,-2.7195,-2.7342,-2.7342,-2.7421,-2.7422,-2.7422]},{"header":{"parameterUnit":"m.s-1","parameterCategory":1,"la1":30.2991,"la2":30.254,"lo1":-89.0895,"lo2":-89.0444,"dy":0.0017,"dx":0.0017,"nx":28,"ny":28,"refTime":"2024-04-05T21:00:00:Z","depth":0,"parameterNumber":3,"parameterNumberName":"V-component_of_WINDS"},"data":[0,0,0,0,0,0,0,0,0,0,0,0,0,0,0,0,0,0,0,0,0,0,0,0,0,0,0,0,0,0,0,0,0,0,0,0,0,0,0,0,0,0,0,0,0,0,0,0,0,0,0,0,0,0,0,0,0,0,3.0887,3.0887,0,3.0894,3.0894,3.0894,3.0931,3.0932,3.0933,3.0934,3.0936,3.0935,3.0935,0,0,0,0,0,0,0,0,0,0,0,0,0,3.0902,3.0902,3.0887,3.0887,3.0887,3.0894,3.0894,3.0894,3.0931,3.0932,3.0933,3.0934,3.0936,3.0935,3.0935,0,0,0,0,0,0,0,0,0,0,0,0,0,3.0901,3.0902,3.0887,3.0907,3.0908,3.0894,3.0894,3.0894,3.0931,3.0932,3.0934,3.0935,3.0937,3.0936,3.0934,3.09,0,0,3.0931,3.093,0,0,0,0,0,0,0,0,3.0901,3.09,3.0904,3.0905,3.0907,3.0913,3.09,3.0896,3.0931,3.0922,3.0934,3.0936,3.0927,3.0927,3.0925,3.09,3.09,3.0931,3.093,3.0929,3.0929,0,0,0,0,0,0,0,3.0901,3.09,3.0889,3.0904,3.0906,3.0914,3.0915,3.0899,3.0917,3.0923,3.0926,3.0926,3.0928,3.0926,3.0925,3.09,3.0931,3.093,3.0929,3.0928,3.0848,3.0847,0,0,0,0,0,0,3.0899,3.09,3.0889,3.089,3.0907,3.0912,3.0914,3.091,3.0917,3.092,3.0925,3.0928,3.0927,3.0927,3.0925,3.0886,3.0929,3.0928,3.0928,3.0849,3.0848,3.0846,0,0,0,0,0,0,3.0899,3.0898,3.0889,3.0896,3.0895,3.0911,3.0906,3.0909,3.0907,3.0919,3.0922,3.092,3.0928,3.0927,3.0907,3.0887,3.0928,3.0927,3.0851,3.0849,3.0847,3.0807,0,0,0,0,0,0,3.0899,3.0897,3.0885,3.0895,3.0895,3.0871,3.0905,3.0908,3.0905,3.0909,3.0915,3.0917,3.0929,3.0908,3.0905,3.0886,3.0926,3.0853,3.085,3.0848,3.081,3.0803,3.0798,0,0,0,0,0,3.09,3.0872,3.0884,3.0883,3.088,3.087,3.0869,3.0886,3.0904,3.0891,3.0899,3.0916,3.0889,3.0906,3.0903,3.0883,3.0854,3.0851,3.0848,3.0812,3.0805,3.0798,0,0,0,0,0,0,3.0858,3.0874,3.0887,3.0863,3.0865,3.0876,3.0861,3.0877,3.0873,3.0876,3.0895,3.0896,3.0873,3.0876,3.0893,3.085,3.0875,3.0871,3.0849,3.0842,3.0836,3.0835,3.0925,0,0,0,0,0,3.0846,3.0837,3.0852,3.0828,3.0829,3.0845,3.0841,3.0853,3.0856,3.0856,3.0862,3.0862,3.0854,3.0848,3.0841,3.0811,3.0812,3.0795,3.0789,3.0785,3.0781,3.0765,3.0758,3.0836,3.0836,3.0836,0,0,3.0821,3.0829,3.0822,3.082,3.0823,3.0813,3.0845,3.0832,3.0825,3.0854,3.0835,3.084,3.0841,3.0816,3.0805,3.0818,3.076,3.078,3.0776,3.0775,3.0761,3.0754,3.0747,3.0833,3.0834,3.0834,0,0,3.077,3.0775,3.0757,3.076,3.0765,3.0775,3.0771,3.078,3.0785,3.0767,3.0789,3.0779,3.0765,3.0765,3.0763,3.0714,3.073,3.0711,3.068,3.0664,3.0658,3.0653,3.0635,3.0629,3.0707,3.0707,3.0707,0,3.0737,3.0724,3.0745,3.0732,3.073,3.0758,3.0739,3.074,3.0742,3.074,3.0754,3.0737,3.074,3.0716,3.0704,3.0701,3.0696,3.071,3.0658,3.0653,3.0648,3.0631,3.0625,3.0705,3.0705,3.0705,3.0706,0,3.0684,3.0675,3.0659,3.0662,3.0659,3.0643,3.066,3.0654,3.0667,3.0676,3.0658,3.0663,3.0658,3.0653,3.0665,3.063,3.0638,3.0655,3.068,3.0638,3.0623,3.0616,3.0702,3.0702,3.0703,3.0704,0,0,3.0606,3.0622,3.0616,3.0618,3.0626,3.0618,3.0603,3.06,3.0595,3.0595,3.0583,3.057,3.0587,3.0585,3.0597,3.0584,3.0545,3.0603,3.0603,3.0592,3.0507,3.0494,3.0486,3.0556,3.0555,3.0554,3.0507,0,3.0557,3.0534,3.0553,3.0526,3.0517,3.0544,3.0531,3.0534,3.0542,3.0535,3.0544,3.0535,3.0557,3.0556,3.0544,3.0552,3.0528,3.0556,3.0544,3.0543,3.0542,3.0478,3.0464,3.0419,3.0501,3.05,3.0499,0,3.0497,3.0497,3.047,3.0481,3.0478,3.0466,3.0465,3.0458,3.0462,3.0469,3.0468,3.0484,3.0469,3.0495,3.0474,3.0493,3.0489,3.0492,3.0491,3.049,3.0518,3.0475,3.0405,3.0399,3.049,3.0491,3.0491,0,3.0443,3.0436,3.0419,3.042,3.0432,3.0423,3.0428,3.0433,3.043,3.0429,3.0427,3.0423,3.0421,3.0417,3.0432,3.0449,3.0409,3.0436,3.0414,3.0414,3.0404,3.0404,3.0332,3.0402,3.0402,3.0402,3.0402,0,3.0387,3.0369,3.0395,3.0384,3.0365,3.0386,3.0366,3.0373,3.0378,3.0369,3.0391,3.0381,3.0402,3.0394,3.0405,3.0386,3.0385,3.039,3.0393,3.0388,3.0387,3.0385,3.0388,3.04,3.0401,3.0401,3.0401,0,3.0323,3.034,3.0323,3.0337,3.034,3.0325,3.0336,3.0326,3.0337,3.0325,3.0323,3.0338,3.0331,3.0345,3.0338,3.0346,3.032,3.0328,3.0319,3.0322,3.0299,3.0301,3.0223,3.0214,3.0289,3.0288,3.0288,0,3.0286,3.0273,3.0286,3.0282,3.0286,3.0279,3.0277,3.0297,3.0294,3.0298,3.0288,3.0282,3.0279,3.0265,3.0275,3.027,3.0278,3.0251,3.0277,3.0272,3.0277,3.0278,3.0277,3.0245,3.0244,3.0243,3.0243,0,3.0219,3.0228,3.0225,3.0224,3.0222,3.0222,3.0224,3.0219,3.024,3.0235,3.0228,3.0226,3.022,3.0214,3.0212,3.0216,3.0232,3.0235,3.0229,3.0224,3.0219,3.0222,3.0305,3.0236,3.0237,3.0237,3.0238,3.0238,3.0167,3.0157,3.0165,3.0161,3.0165,3.0166,3.0158,3.0168,3.0164,3.0162,3.0174,3.0164,3.0169,3.0168,3.017,3.0162,3.0174,3.0166,3.0164,3.0162,3.0158,3.0221,3.0162,3.0162,3.0162,3.0162,3.0162,0,3.0101,3.0108,3.0104,3.0107,3.0103,3.0121,3.0124,3.012,3.0112,3.0115,3.0112,3.0105,3.0099,3.0109,3.0105,3.0097,3.0105,3.0095,3.0096,3.0097,3.0148,3.0153,3.0089,3.0089,3.0089,3.0089,3.009,3.009,3.0066,3.0051,3.0061,3.0048,3.0055,3.0047,3.0047,3.0048,3.0051,3.0042,3.0039,3.0046,3.0052,3.0049,3.0045,3.0048,3.0045,3.0033,3.0038,3.0086,3.0093,3.01,3.0105,3.0032,3.0032,2.9988,2.9988,2.9987]}]]